Wind_Speed
5 5 5 3 6 8 7 8 10 12 13 12 15 20 21 22 23 22 22 21 22 22 23 24 26 27 29 31 33 35 37 39 41 42 44 44 44 46 46 46 45 43 42 41
7 7 6 4 4 6 7 10 13 14 16 16 16 20 20 20 19 18 18 19 20 20 21 23 24 26 28 30 33 35 36 39 41 42 43 44 44 44 45 45 44 43 42 41
12 7 7 6 5 7 9 12 15 16 16 15 15 18 18 16 14 14 15 17 18 20 21 23 24 26 28 30 31 34 36 38 39 41 42 43 43 44 45 45 44 42 42 42
9 6 5 6 7 10 11 11 13 14 15 15 16 19 18 14 10 11 14 17 18 20 21 23 24 26 28 30 32 34 35 37 39 40 42 43 44 45 45 46 46 45 44 43
5 7 6 7 9 9 8 10 13 15 17 19 20 20 14 11 11 11 16 19 20 21 22 24 26 27 29 31 33 35 36 37 39 41 42 44 45 45 46 46 46 46 45 44
1 4 6 6 7 8 8 10 14 16 19 22 19 13 11 13 17 18 19 20 21 23 24 26 28 29 30 32 35 36 38 38 40 41 43 44 45 45 46 46 46 46 46 46
6 4 5 7 7 7 7 11 15 18 20 14 9 9 9 16 18 20 21 22 24 25 26 27 29 31 32 35 37 38 39 40 41 42 43 44 44 45 45 46 46 46 46 46
12 10 9 8 9 7 6 9 14 17 21 17 11 10 11 17 18 20 22 23 25 27 28 30 32 33 36 38 39 40 41 41 42 43 43 43 43 44 43 43 44 44 44 45
10 10 11 11 10 9 7 7 8 10 13 16 18 18 17 17 20 21 23 24 26 29 31 33 34 36 38 40 41 42 43 43 43 43 42 42 42 41 42 42 43 44 45 46
8 8 8 11 11 10 10 9 8 7 7 9 14 19 20 21 22 24 25 27 28 30 32 34 37 39 40 41 42 43 44 44 43 42 41 40 41 41 42 43 44 46 47 48
8 6 6 8 11 11 10 9 9 8 8 7 11 20 23 24 24 25 26 28 30 32 33 35 37 39 41 42 43 44 45 44 43 41 40 40 41 42 43 45 46 47 47 48
7 6 5 8 8 8 9 11 10 10 11 10 11 21 24 25 25 26 28 30 32 33 35 37 39 41 42 43 44 44 44 43 42 41 41 42 43 44 45 46 48 49 49 50
7 6 7 11 8 8 11 13 12 11 10 10 11 19 26 28 27 28 30 31 33 35 37 39 40 42 44 44 44 44 43 43 42 42 42 43 44 46 47 48 50 50 50 51
8 6 5 8 10 11 13 14 13 13 12 13 16 20 25 26 26 28 30 32 34 36 38 40 42 44 44 45 45 44 43 43 42 43 43 44 45 47 48 50 51 51 51 50
7 8 8 8 9 11 12 13 14 15 16 16 18 21 26 26 28 29 30 33 35 38 40 42 44 45 45 45 45 44 43 43 43 43 44 45 46 48 49 50 50 50 50 49
9 9 9 8 10 11 12 14 16 17 18 19 21 23 26 27 29 30 30 33 36 38 41 43 45 46 46 45 45 44 44 44 44 44 44 46 47 48 48 49 49 49 49 48
11 11 9 8 9 10 13 15 19 20 21 23 25 26 27 27 29 30 31 33 37 40 43 45 46 47 46 46 45 45 45 45 44 44 45 46 47 48 49 50 49 49 47 47
11 12 12 10 9 12 16 17 20 23 23 24 24 26 28 29 32 34 34 37 40 43 45 46 47 47 46 46 46 46 46 45 45 45 46 46 47 48 49 49 47 45 44 43
14 13 13 13 10 12 18 21 21 24 25 23 24 25 27 28 31 37 38 40 43 45 46 47 47 47 47 46 46 46 45 45 45 45 45 46 47 48 48 46 43 42 41 39
17 16 15 15 14 13 18 22 23 26 28 25 26 27 29 30 31 34 38 40 43 44 46 47 47 47 47 47 46 46 45 45 45 45 45 46 47 47 45 43 41 39 37 34
21 19 18 18 17 17 23 24 25 26 28 28 28 29 30 32 33 36 38 41 43 44 46 46 47 47 47 47 46 45 45 45 45 45 45 45 46 44 42 41 39 36 34 31
19 19 20 20 20 22 26 28 27 26 26 27 28 29 30 32 35 37 40 42 43 44 45 45 46 47 47 47 46 45 44 44 44 44 44 45 44 42 40 39 36 34 32 29
19 21 21 21 23 27 27 27 27 27 26 26 27 29 31 33 36 38 41 43 43 44 44 45 46 46 47 47 46 44 43 43 43 44 43 43 42 40 39 38 35 32 30 27
22 26 24 23 23 27 27 27 27 26 26 27 28 30 32 35 37 40 42 43 43 42 43 45 46 46 46 46 46 44 43 42 42 43 42 41 40 38 37 36 33 31 29 26
21 25 26 26 26 26 26 26 26 27 27 29 30 32 34 36 38 41 42 43 42 42 43 44 46 46 46 46 45 44 42 41 41 42 42 40 38 37 36 34 32 31 28 25
22 24 26 26 26 27 27 27 27 28 29 30 32 34 36 38 39 41 42 42 42 42 43 44 45 46 46 45 44 43 41 40 40 40 40 39 37 36 34 33 31 30 28 25
Wind_Direction
343 327 323 272 246 255 283 273 255 248 251 257 262 269 272 276 279 282 285 285 283 282 281 281 281 281 281 281 281 282 283 284 285 286 286 287 288 287 287 288 288 288 287 285
303 284 273 264 256 259 266 265 256 250 261 265 265 269 273 274 278 284 289 289 289 287 286 286 285 285 285 285 284 283 284 284 286 287 287 287 288 288 288 288 287 287 285 284
306 319 316 320 304 256 235 240 251 264 269 266 266 265 267 273 281 291 298 300 297 294 292 290 289 289 289 289 289 288 288 288 288 288 288 288 287 288 288 287 286 286 285 283
305 304 296 299 281 267 256 250 250 264 273 274 269 264 261 266 277 298 310 310 307 303 300 298 297 296 295 295 294 293 293 293 292 291 290 290 289 289 289 289 288 287 285 283
301 319 328 315 296 286 282 273 265 263 269 264 264 268 270 307 314 318 320 318 315 312 309 307 304 302 302 301 300 299 298 297 296 294 293 292 292 291 290 289 288 287 285 283
351 335 332 316 298 307 309 291 285 285 281 267 271 288 308 338 337 333 327 322 320 317 314 313 311 309 307 306 305 304 303 301 300 298 296 295 294 292 291 291 290 288 287 284
29 11 343 332 323 305 301 305 308 312 317 322 311 311 330 341 336 335 330 326 323 321 319 317 316 315 313 312 311 309 307 306 304 302 299 297 296 294 293 292 291 289 288 285
14 7 341 331 320 313 322 321 329 332 334 343 350 338 340 337 335 331 328 326 325 324 323 321 320 319 318 317 315 313 311 310 307 305 303 300 298 296 295 294 293 291 289 287
346 340 337 333 326 323 319 307 313 325 340 344 344 339 334 334 332 330 328 327 326 326 325 325 324 323 322 321 319 316 314 312 309 306 304 301 299 298 296 295 293 292 290 288
324 321 324 330 335 329 326 323 320 325 330 345 335 321 323 326 325 325 326 326 327 326 326 326 325 324 323 322 320 317 315 313 310 308 305 302 301 298 296 294 293 292 290 288
309 316 322 325 324 324 321 316 318 320 319 322 320 307 315 318 320 323 325 325 326 327 327 326 325 325 324 323 321 319 317 314 312 309 306 304 302 299 297 296 295 293 290 287
310 305 288 278 295 319 319 317 319 325 326 333 324 306 311 316 321 325 326 326 326 327 327 327 327 326 325 324 322 320 318 315 313 310 307 305 303 301 300 298 296 294 291 288
315 307 308 321 317 333 327 319 317 314 316 314 312 303 308 313 320 323 325 325 326 328 329 328 328 327 327 325 324 322 320 317 314 311 309 307 305 304 303 301 299 296 293 289
312 304 298 320 322 316 313 315 314 313 308 301 296 296 301 310 318 321 324 325 327 329 329 329 328 328 328 327 326 324 321 319 316 314 311 309 308 308 306 305 302 299 295 291
314 307 298 291 296 304 308 309 308 310 311 309 306 307 308 318 321 323 326 327 328 330 330 330 329 329 329 329 327 325 323 321 318 316 314 312 311 311 310 308 305 302 297 293
316 311 307 306 305 315 316 311 311 314 317 316 314 311 314 320 320 323 327 328 329 330 331 332 331 331 331 330 328 326 324 323 321 318 317 316 315 315 314 312 309 305 300 296
315 317 314 306 307 321 308 305 308 313 314 315 314 315 318 320 320 324 329 328 331 333 334 334 333 333 332 331 330 328 327 325 323 322 321 320 320 319 318 316 312 308 304 300
316 317 316 310 313 314 306 305 308 310 312 314 315 317 320 322 323 325 331 331 334 335 336 336 335 334 334 333 331 330 329 328 326 325 324 324 324 322 321 320 317 313 309 306
316 316 314 312 309 306 302 304 310 312 311 315 315 317 320 324 325 326 332 334 335 335 336 336 336 335 335 334 333 332 331 330 329 328 327 327 327 326 325 324 322 319 315 312
309 311 309 311 312 309 297 303 313 314 312 321 320 323 324 325 326 328 331 332 334 334 336 337 337 337 336 336 335 334 333 332 331 330 330 330 330 330 330 329 327 325 322 317
302 311 313 313 315 306 299 306 309 310 314 317 318 320 321 323 326 328 330 333 334 335 336 337 338 338 338 338 337 336 335 335 334 333 333 333 334 334 334 333 332 331 329 325
294 295 298 300 299 291 301 304 307 311 312 313 315 318 321 324 326 329 331 333 334 335 336 337 338 339 339 339 339 338 337 337 337 336 336 336 337 337 338 338 337 335 334 332
294 294 295 295 294 295 299 302 305 309 311 313 316 319 322 325 327 329 331 333 334 335 336 338 339 339 339 340 340 339 338 339 339 339 339 339 340 341 341 343 343 341 339 337
285 292 297 297 295 295 300 303 305 308 311 314 317 319 322 325 327 329 331 333 334 335 336 338 339 339 340 341 341 341 340 340 341 342 342 342 343 344 345 346 347 346 345 343
286 289 295 299 299 301 303 306 308 309 312 314 316 319 322 325 327 329 331 333 334 335 336 337 339 340 340 341 342 342 341 341 343 344 345 345 346 347 347 349 350 350 351 350
287 289 293 297 300 303 304 307 309 309 311 313 315 318 321 324 327 329 331 333 334 335 336 337 339 340 341 341 342 342 342 342 344 345 347 348 348 349 349 351 353 355 357 359
Height
5862 5863 5862 5862 5863 5865 5866 5866 5865 5865 5864 5865 5865 5864 5862 5861 5860 5859 5858 5857 5856 5856 5855 5854 5853 5851 5850 5848 5846 5845 5842 5840 5837 5835 5832 5829 5826 5822 5819 5817 5815 5813 5812 5810
5863 5862 5860 5861 5861 5863 5865 5866 5863 5861 5862 5863 5861 5860 5858 5857 5855 5854 5854 5853 5852 5851 5850 5849 5847 5846 5844 5842 5840 5837 5835 5832 5829 5826 5823 5819 5816 5813 5810 5808 5806 5804 5802 5801
5862 5862 5861 5861 5861 5862 5863 5862 5861 5861 5860 5860 5858 5855 5851 5851 5850 5851 5851 5849 5848 5847 5846 5844 5842 5840 5838 5835 5833 5830 5827 5824 5820 5817 5813 5810 5807 5804 5800 5798 5795 5794 5793 5791
5862 5861 5861 5861 5861 5860 5860 5860 5860 5857 5856 5853 5853 5849 5845 5844 5845 5847 5848 5846 5844 5843 5841 5839 5836 5834 5831 5828 5825 5822 5819 5815 5811 5808 5804 5800 5797 5793 5790 5787 5784 5783 5782 5780
5861 5860 5860 5860 5860 5859 5858 5858 5857 5855 5852 5850 5846 5843 5839 5840 5839 5842 5844 5842 5840 5838 5836 5833 5830 5827 5824 5821 5817 5813 5810 5806 5802 5798 5793 5789 5785 5782 5778 5776 5773 5771 5770 5768
5860 5861 5861 5861 5860 5859 5857 5857 5855 5853 5850 5846 5843 5840 5839 5839 5840 5840 5840 5838 5836 5834 5831 5828 5824 5821 5817 5813 5809 5804 5800 5796 5792 5787 5783 5778 5774 5770 5767 5764 5761 5759 5757 5755
5859 5860 5860 5860 5859 5858 5858 5857 5854 5850 5846 5842 5842 5840 5840 5840 5840 5838 5837 5835 5832 5830 5826 5823 5819 5815 5810 5806 5801 5796 5791 5786 5781 5776 5771 5767 5762 5758 5755 5752 5749 5747 5744 5743
5860 5861 5861 5860 5859 5858 5857 5856 5854 5851 5846 5841 5839 5838 5839 5840 5840 5838 5835 5833 5830 5826 5822 5817 5813 5808 5803 5797 5791 5786 5781 5776 5770 5765 5760 5755 5751 5747 5743 5740 5737 5734 5732 5730
5863 5863 5862 5860 5858 5857 5857 5855 5855 5853 5850 5846 5843 5840 5839 5839 5838 5836 5833 5830 5827 5822 5817 5812 5807 5801 5795 5789 5783 5777 5771 5765 5760 5754 5749 5744 5740 5736 5732 5729 5725 5722 5719 5717
5864 5863 5862 5860 5859 5857 5856 5854 5853 5852 5851 5850 5847 5842 5841 5839 5837 5834 5831 5827 5823 5818 5813 5807 5801 5795 5789 5782 5775 5769 5762 5756 5750 5744 5739 5734 5730 5726 5722 5718 5714 5711 5707 5704
5863 5862 5862 5860 5858 5857 5855 5854 5852 5851 5849 5849 5848 5844 5839 5837 5834 5832 5828 5824 5819 5814 5808 5802 5796 5789 5782 5775 5767 5760 5753 5746 5740 5734 5729 5724 5719 5715 5710 5706 5702 5698 5694 5690
5862 5861 5859 5857 5855 5855 5854 5852 5851 5851 5849 5848 5847 5844 5838 5834 5831 5828 5824 5820 5814 5809 5803 5796 5789 5782 5775 5767 5759 5751 5744 5737 5730 5724 5719 5714 5708 5703 5698 5693 5688 5683 5678 5674
5861 5860 5859 5856 5855 5854 5853 5851 5850 5849 5848 5846 5845 5843 5835 5831 5828 5824 5820 5815 5809 5803 5797 5790 5782 5775 5767 5759 5750 5742 5734 5727 5721 5715 5709 5703 5696 5690 5684 5678 5672 5666 5661 5657
5859 5859 5859 5858 5856 5854 5853 5851 5849 5847 5846 5844 5842 5839 5834 5829 5826 5821 5816 5810 5804 5798 5791 5783 5775 5767 5759 5750 5742 5733 5726 5718 5711 5705 5698 5691 5684 5677 5670 5663 5656 5649 5643 5638
5858 5857 5856 5855 5854 5853 5851 5849 5847 5845 5843 5841 5838 5834 5829 5825 5821 5816 5811 5805 5799 5792 5785 5777 5768 5759 5751 5742 5733 5725 5717 5709 5702 5695 5687 5680 5672 5665 5656 5648 5640 5633 5626 5620
5856 5856 5854 5853 5852 5850 5849 5847 5845 5842 5839 5837 5834 5830 5825 5821 5816 5811 5806 5800 5794 5786 5778 5770 5760 5751 5743 5734 5725 5717 5709 5701 5693 5685 5677 5669 5660 5652 5643 5634 5625 5617 5609 5603
5855 5854 5852 5851 5850 5849 5848 5845 5842 5840 5837 5833 5830 5826 5821 5816 5811 5806 5802 5795 5788 5780 5771 5762 5753 5744 5735 5726 5717 5708 5700 5692 5683 5675 5666 5658 5649 5640 5630 5620 5610 5602 5593 5587
5854 5852 5851 5849 5848 5846 5846 5842 5839 5836 5833 5829 5825 5821 5816 5812 5805 5800 5796 5788 5781 5772 5764 5755 5746 5736 5727 5718 5709 5700 5692 5683 5674 5665 5656 5647 5638 5628 5618 5607 5597 5588 5580 5572
5851 5850 5848 5846 5845 5844 5841 5838 5836 5832 5828 5825 5821 5817 5812 5808 5802 5793 5788 5781 5773 5766 5757 5748 5739 5729 5720 5711 5702 5693 5684 5675 5666 5657 5648 5638 5628 5618 5607 5597 5587 5577 5568 5561
5849 5847 5846 5843 5842 5840 5838 5834 5832 5829 5822 5820 5815 5811 5807 5803 5798 5792 5784 5776 5769 5760 5751 5742 5733 5723 5714 5704 5695 5686 5677 5668 5658 5649 5640 5630 5619 5609 5598 5588 5578 5568 5559 5551
5845 5844 5842 5840 5838 5837 5832 5830 5828 5825 5821 5815 5811 5807 5803 5798 5792 5786 5779 5771 5763 5754 5745 5736 5727 5717 5708 5698 5689 5679 5670 5661 5651 5642 5632 5622 5612 5601 5591 5581 5571 5561 5553 5545
5844 5841 5839 5837 5835 5834 5828 5825 5822 5820 5815 5811 5807 5803 5798 5792 5786 5780 5773 5765 5757 5748 5740 5731 5721 5712 5702 5693 5683 5674 5664 5655 5645 5636 5626 5616 5605 5595 5585 5576 5566 5556 5548 5541
5839 5838 5835 5833 5832 5827 5823 5820 5817 5814 5810 5807 5803 5798 5793 5787 5781 5774 5767 5759 5751 5743 5734 5725 5716 5707 5697 5687 5678 5668 5659 5650 5640 5631 5621 5611 5601 5590 5581 5571 5562 5553 5545 5538
5835 5830 5829 5827 5825 5821 5818 5815 5812 5808 5805 5801 5797 5792 5787 5781 5775 5768 5761 5754 5746 5737 5729 5720 5711 5702 5692 5683 5673 5664 5654 5645 5636 5626 5616 5607 5597 5587 5578 5568 5559 5551 5543 5535
5830 5827 5824 5821 5819 5816 5813 5810 5807 5803 5799 5795 5791 5786 5781 5775 5769 5762 5755 5748 5740 5732 5724 5715 5706 5697 5688 5678 5669 5659 5650 5641 5632 5623 5613 5603 5594 5585 5576 5567 5558 5550 5542 5534
5824 5822 5819 5816 5813 5811 5807 5804 5801 5797 5794 5790 5785 5780 5775 5769 5763 5756 5749 5742 5734 5727 5719 5710 5702 5693 5683 5674 5665 5656 5646 5638 5629 5620 5611 5601 5592 5583 5574 5566 5558 5550 5542 5535